EW4443 Weather Reports


time (UTC)temp
F
wind
direction
speed
knots
gust
knots
rain 1hr
in
rain 24hr
in
rain mn
in
humidity
%
barometer
mb
20260508172750 88 113 0.0 3.5 0.00 0.00 0.00 20 1011.5
20260508172250 87 158 0.9 3.5 0.00 0.00 0.00 20 1011.1
20260508171750 87 203 0.9 3.5 0.00 0.00 0.00 22 1011.5
20260508171522 87 248 0.9 3.5 0.00 0.00 0.00 20 1011.5
20260508170750 87 180 0.0 3.5 0.00 0.00 0.00 22 1011.5
20260508170249 86 158 0.0 3.5 0.00 0.00 0.00 22 1011.5
20260508165749 86 68 0.0 5.2 0.00 0.00 0.00 22 1011.5
20260508165249 86 180 0.9 5.2 0.00 0.00 0.00 20 1011.5
20260508164749 86 270 0.9 4.3 0.00 0.00 0.00 22 1011.8
20260508164250 85 135 0.9 3.5 0.00 0.00 0.00 22 1011.8
20260508163750 85 158 0.0 2.6 0.00 0.00 0.00 22 1011.8
20260508163250 85 203 0.0 2.6 0.00 0.00 0.00 22 1011.8
20260508162750 85 68 0.9 3.5 0.00 0.00 0.00 22 1011.8
20260508162250 84 180 0.0 4.3 0.00 0.00 0.00 22 1011.8
20260508161749 84 270 0.9 4.3 0.00 0.00 0.00 24 1011.8
20260508161249 83 180 0.0 3.5 0.00 0.00 0.00 24 1011.8
20260508160746 83 180 0.9 3.5 0.00 0.00 0.00 24 1011.8
20260508160231 83 225 0.0 5.2 0.00 0.00 0.00 24 1011.8
20260508155730 83 180 0.9 5.2 0.00 0.00 0.00 24 1011.5
20260508155231 83 180 0.9 3.5 0.00 0.00 0.00 24 1011.8
20260508154731 82 113 0.0 3.5 0.00 0.00 0.00 25 1011.8
20260508154236 81 270 0.0 3.5 0.00 0.00 0.00 25 1011.5
20260508154232 82 68 0.0 1.7 0.00 0.00 0.00 25 1011.5
20260508153231 81 158 0.0 3.5 0.00 0.00 0.00 25 1011.8
20260508152730 80 158 0.0 0.9 0.00 0.00 0.00 25 1011.8
20260508152230 80 135 0.0 1.7 0.00 0.00 0.00 25 1011.8
20260508151730 80 180 0.0 2.6 0.00 0.00 0.00 25 1011.8
20260508151230 80 293 0.0 2.6 0.00 0.00 0.00 25 1011.8
20260508150731 79 0 0.0 1.7 0.00 0.00 0.00 27 1012.1
20260508150231 79 0 0.0 1.7 0.00 0.00 0.00 27 1011.8
20260508145731 78 45 0.0 0.9 0.00 0.00 0.00 27 1011.8
20260508145232 77 338 0.0 1.7 0.00 0.00 0.00 27 1011.8
20260508144731 76 68 0.0 1.7 0.00 0.00 0.00 27 1011.8
20260508144230 76 248 0.0 0.9 0.00 0.00 0.00 29 1011.8
20260508144003 75 225 0.0 1.7 0.00 0.00 0.00 29 1011.5
20260508143230 75 158 0.0 1.7 0.00 0.00 0.00 30 1011.8
20260508143001 74 113 0.0 1.7 0.00 0.00 0.00 30 1011.8
20260508142213 74 23 0.0 1.7 0.00 0.00 0.00 31 1011.5
20260508141712 73 90 0.0 1.7 0.00 0.00 0.00 31 1011.8
20260508141213 73 203 0.0 1.7 0.00 0.00 0.00 31 1011.5
20260508140715 72 270 0.0 1.7 0.00 0.00 0.00 30 1011.5
20260508140212 71 225 0.0 2.6 0.00 0.00 0.00 30 1011.5
20260508135706 71 23 0.0 2.6 0.00 0.00 0.00 32 1011.5
20260508135423 71 338 0.0 0.9 0.00 0.00 0.00 31 1011.1
20260508134653 71 135 0.0 0.9 0.00 0.00 0.00 31 1011.1
20260508134152 70 293 0.0 0.9 0.00 0.00 0.00 31 1011.1
20260508133652 69 248 0.0 0.9 0.00 0.00 0.00 32 1011.1
20260508133141 69 248 0.0 0.9 0.00 0.00 0.00 32 1011.1
20260508132650 69 338 0.0 0.0 0.00 0.00 0.00 31 1010.8
20260508132014 69 270 0.0 0.9 0.00 0.00 0.00 32 1011.1
20260508131507 69 45 0.0 2.6 0.00 0.00 0.00 32 1010.8
20260508131200 69 270 0.0 2.6 0.00 0.00 0.00 32 1010.5
20260508130405 69 203 0.0 0.9 0.00 0.00 0.00 32 1010.8
20260508125834 69 315 0.0 0.9 0.00 0.00 0.00 32 1010.8
20260508125212 69 23 0.0 0.0 0.00 0.00 0.00 32 1010.5
20260508124648 0 270 0.0 0.9 0.00 0.00 0.00 1010.5
20260508124355 69 45 0.0 0.9 0.00 0.00 0.00 31 1010.5
20260508123319 69 338 0.0 0.9 0.00 0.00 0.00 32 1010.5
20260508122819 69 0 0.0 1.7 0.00 0.00 0.00 32 1010.5
20260508122130 69 248 0.0 2.6 0.00 0.00 0.00 32 1010.5
20260508122035 69 23 0.0 0.9 0.00 0.00 0.00 32 1010.0
20260508121020 69 293 0.0 0.0 0.00 0.00 0.00 32 1010.0
20260508120350 69 338 0.0 0.9 0.00 0.00 0.00 32 1010.0
20260508115844 69 315 0.0 0.9 0.00 0.00 0.00 32 1010.0
20260508115315 69 315 0.0 0.0 0.00 0.00 0.00 32 1010.0
20260508114804 69 270 0.0 0.9 0.00 0.00 0.00 32 1010.0
20260508114311 69 68 0.0 0.9 0.00 0.00 0.00 32 1010.0
20260508113747 69 113 0.0 0.9 0.00 0.00 0.00 32 1010.0
20260508113233 69 45 0.0 0.0 0.00 0.00 0.00 32 1009.7
20260508113229 69 68 0.0 0.9 0.00 0.00 0.00 32 1010.0
20260508112444 70 68 0.0 0.9 0.00 0.00 0.00 32 1009.7
20260508112359 69 68 0.0 0.0 0.00 0.00 0.00 32 1010.0
20260508111338 70 45 0.0 0.9 0.00 0.00 0.00 32 1009.7
20260508110833 70 90 0.0 0.0 0.00 0.00 0.00 31 1009.7
20260508110005 70 68 0.0 0.0 0.00 0.00 0.00 31 1009.7
20260508105458 70 45 0.0 0.0 0.00 0.00 0.00 31 1009.7
20260508105006 70 113 0.0 0.0 0.00 0.00 0.00 32 1009.7
20260508104444 70 203 0.0 0.0 0.00 0.00 0.00 31 1009.7
20260508104434 70 23 0.0 0.0 0.00 0.00 0.00 32 1009.7
20260508103402 70 248 0.0 0.0 0.00 0.00 0.00 31 1009.7
20260508102851 71 270 0.0 0.0 0.00 0.00 0.00 35 1009.7
20260508102358 70 315 0.0 0.9 0.00 0.00 0.00 31 1009.7
20260508101843 71 270 0.0 0.9 0.00 0.00 0.00 31 1009.7
20260508101331 71 45 0.0 0.0 0.00 0.00 0.00 34 1009.7
20260508101110 71 23 0.0 0.0 0.00 0.00 0.00 32 1009.7
20260508100838 71 23 0.0 0.0 0.00 0.00 0.00 32 1009.7
20260508100335 71 23 0.0 0.0 0.00 0.00 0.00 31 1009.7
20260508100059 71 338 0.0 0.0 0.00 0.00 0.00 30 1009.3
20260508095320 71 315 0.0 0.0 0.00 0.00 0.00 30 1009.3
20260508094642 71 0 0.0 1.7 0.00 0.00 0.00 30 1009.3
20260508094124 71 23 0.0 1.7 0.00 0.00 0.00 30 1009.3
20260508093604 71 45 0.0 0.9 0.00 0.00 0.00 30 1009.3
20260508093050 72 45 0.0 1.7 0.00 0.00 0.00 30 1009.3
20260508092545 72 113 0.0 1.7 0.00 0.00 0.00 30 1009.3
20260508092044 72 135 0.0 1.7 0.00 0.00 0.00 27 1009.7
20260508091547 72 113 0.0 1.7 0.00 0.00 0.00 27 1009.3
20260508091039 72 135 0.0 1.7 0.00 0.00 0.00 27 1009.3
20260508090532 72 338 0.0 3.5 0.00 0.00 0.00 27 1009.7
20260508090017 72 23 0.9 3.5 0.00 0.00 0.00 25 1009.7
20260508085814 73 90 1.7 2.6 0.00 0.00 0.00 25 1009.7
20260508084953 73 45 0.9 2.6 0.00 0.00 0.00 25 1009.7
20260508084444 73 68 0.9 2.6 0.00 0.00 0.00 25 1009.7
20260508083943 73 68 0.9 2.6 0.00 0.00 0.00 25 1009.7
20260508083433 73 0 0.0 1.7 0.00 0.00 0.00 27 1009.7
20260508082905 73 90 0.0 1.7 0.00 0.00 0.00 27 1009.7
20260508082405 73 45 0.0 0.9 0.00 0.00 0.00 29 1009.7
20260508081859 74 23 0.0 0.9 0.00 0.00 0.00 29 1009.7
20260508081352 74 45 0.0 0.0 0.00 0.00 0.00 27 1009.7
20260508080815 74 45 0.0 0.0 0.00 0.00 0.00 25 1009.3
20260508080309 74 338 0.0 0.0 0.00 0.00 0.00 25 1009.3
20260508075801 74 0 0.0 0.0 0.00 0.00 0.00 25 1009.3
20260508075241 74 0 0.0 0.0 0.00 0.00 0.00 25 1009.0
20260508074711 74 0 0.0 0.0 0.00 0.00 0.00 24 1009.7
20260508074513 74 23 0.0 0.0 0.00 0.00 0.00 24 1009.3
20260508073646 74 23 0.0 0.0 0.00 0.00 0.00 24 1009.3
20260508073142 74 45 0.0 0.0 0.00 0.00 0.00 22 1009.3
20260508072631 74 270 0.0 0.9 0.00 0.00 0.00 22 1009.3
20260508072105 74 315 0.0 2.6 0.00 0.00 0.00 22 1009.7
20260508071538 74 180 0.9 3.5 0.00 0.00 0.00 22 1009.7
20260508071319 75 158 0.9 3.5 0.00 0.00 0.00 25 1009.3
20260508070525 75 338 0.0 0.0 0.00 0.00 0.00 25 1009.3
20260508070010 75 338 0.0 0.0 0.00 0.00 0.00 25 1009.3
20260508065736 76 338 0.0 0.0 0.00 0.00 0.00 25 1009.0
20260508064957 76 338 0.0 0.0 0.00 0.00 0.00 25 1009.0
20260508064449 76 0 0.0 0.0 0.00 0.00 0.00 25 1009.3
20260508063724 76 0 0.0 0.0 0.00 0.00 0.00 25 1009.3
20260508063219 76 0 0.0 0.0 0.00 0.00 0.00 25 1009.3
20260508062712 76 0 0.0 1.7 0.00 0.00 0.00 25 1009.0
20260508062201 77 0 0.0 1.7 0.00 0.00 0.00 24 1009.3
20260508061707 77 338 0.0 0.0 0.00 0.00 0.00 24 1009.0
20260508061153 78 338 0.0 0.0 0.00 0.00 0.00 24 1009.3
20260508060914 78 315 0.0 0.0 0.00 0.00 0.00 24 1009.0
20260508060123 78 315 0.0 0.0 0.00 0.00 0.00 22 1009.0
20260508055556 78 315 0.0 0.0 0.00 0.00 0.00 22 1009.0
20260508055004 78 248 0.0 0.0 0.00 0.00 0.00 22 1009.3
20260508054734 78 225 0.0 0.0 0.00 0.00 0.00 22 1009.3
20260508053913 79 225 0.0 0.0 0.00 0.00 0.00 22 1009.3
20260508053404 79 225 0.0 0.0 0.00 0.00 0.00 20 1009.3
20260508052834 79 180 0.0 0.0 0.00 0.00 0.00 22 1009.0
20260508052333 80 180 0.0 0.0 0.00 0.00 0.00 22 1009.0
20260508051812 80 203 0.0 0.0 0.00 0.00 0.00 22 1009.0
20260508051455 80 203 0.0 0.0 0.00 0.00 0.00 22 1009.0
20260508050645 80 203 0.0 0.0 0.00 0.00 0.00 22 1009.0
20260508050405 80 203 0.0 0.0 0.00 0.00 0.00 20 1009.0
20260508045641 81 203 0.0 0.0 0.00 0.00 0.00 20 1008.7
20260508045139 81 203 0.0 0.0 0.00 0.00 0.00 20 1008.7
20260508044638 81 203 0.0 0.0 0.00 0.00 0.00 20 1009.0
20260508044117 82 203 0.0 0.0 0.00 0.00 0.00 20 1008.7
20260508043639 82 203 0.0 0.0 0.00 0.00 0.00 19 1008.7
20260508043118 82 203 0.0 0.0 0.00 0.00 0.00 19 1008.7
20260508042612 83 203 0.0 0.0 0.00 0.00 0.00 19 1008.7
20260508041956 83 203 0.0 0.0 0.00 0.00 0.00 17 1008.7
20260508041437 83 203 0.0 0.0 0.00 0.00 0.00 17 1008.7
20260508040921 84 203 0.0 0.0 0.00 0.00 0.00 17 1008.3
20260508040415 84 203 0.0 0.0 0.00 0.00 0.00 19 1008.3
20260508040133 84 203 0.0 0.0 0.00 0.00 0.00 17 1008.3
20260508035336 85 203 0.0 0.0 0.00 0.00 0.00 15 1008.3
20260508034825 85 203 0.0 0.0 0.00 0.00 0.00 15 1008.0
20260508034327 85 180 0.0 0.0 0.00 0.00 0.00 17 1008.0
20260508033814 86 203 0.0 0.0 0.00 0.00 0.00 17 1008.0
20260508033248 87 203 0.0 0.0 0.00 0.00 0.00 15 1008.0
20260508033025 87 203 0.0 0.0 0.00 0.00 0.00 15 1008.0
20260508032228 87 203 0.0 0.0 0.00 0.00 0.00 15 1007.6
20260508031713 87 203 0.0 0.9 0.00 0.00 0.00 13 1007.6
20260508031219 87 225 0.0 0.9 0.00 0.00 0.00 15 1007.6
20260508030654 88 135 0.0 0.0 0.00 0.00 0.00 13 1007.6
20260508030152 88 270 0.0 0.0 0.00 0.00 0.00 13 1007.6
20260508025637 88 270 0.0 0.9 0.00 0.00 0.00 12 1007.3
20260508025351 89 270 0.0 1.7 0.00 0.00 0.00 12 1007.3
20260508024602 89 315 0.0 4.3 0.00 0.00 0.00 12 1007.3
20260508024107 89 248 1.7 4.3 0.00 0.00 0.00 12 1007.3
20260508023544 89 248 0.9 2.6 0.00 0.00 0.00 12 1007.3
20260508023037 90 270 0.0 1.7 0.00 0.00 0.00 12 1006.9
20260508022502 90 225 0.9 1.7 0.00 0.00 0.00 12 1007.3
20260508021926 90 203 0.9 2.6 0.00 0.00 0.00 11 1006.9
20260508021418 91 248 0.9 4.3 0.00 0.00 0.00 12 1006.9
20260508020851 91 270 0.9 5.2 0.00 0.00 0.00 11 1006.9
20260508020353 91 158 1.7 5.2 0.00 0.00 0.00 10 1006.9
20260508020105 91 225 1.7 4.3 0.00 0.00 0.00 11 1006.9
20260508015552 91 315 1.7 4.3 0.00 0.00 0.00 10 1006.5
20260508014814 92 270 0.9 6.1 0.00 0.00 0.00 10 1006.5
20260508014254 92 270 1.7 6.1 0.00 0.00 0.00 10 1006.5
20260508013752 92 225 0.9 4.3 0.00 0.00 0.00 10 1006.2
20260508013237 92 225 0.9 4.3 0.00 0.00 0.00 10 1006.5
20260508012736 92 225 0.9 4.3 0.00 0.00 0.00 10 1006.5
20260508012228 93 203 1.7 6.1 0.00 0.00 0.00 10 1006.2
20260508011702 93 225 3.5 7.0 0.00 0.00 0.00 11 1006.5
20260508011154 93 248 2.6 7.0 0.00 0.00 0.00 10 1006.5
20260508010659 94 135 1.7 6.1 0.00 0.00 0.00 10 1006.5
20260508010459 94 270 1.7 6.1 0.00 0.00 0.00 10 1006.5
20260508005646 94 248 1.7 6.1 0.00 0.00 0.00 11 1006.5
20260508005154 94 248 0.9 6.1 0.00 0.00 0.00 11 1006.5
20260508004507 95 270 0.0 3.5 0.00 0.00 0.00 10 1006.5
20260508004007 95 248 0.9 3.5 0.00 0.00 0.00 9 1006.5
20260508003424 95 270 0.9 3.5 0.00 0.00 0.00 11 1006.5
20260508002912 95 315 0.9 3.5 0.00 0.00 0.00 11 1006.5
20260508002632 96 180 0.0 2.6 0.00 0.00 0.00 10 1006.2
20260508001845 96 225 0.0 4.3 0.00 0.00 0.00 10 1006.5
20260508001345 96 225 0.9 4.3 0.00 0.00 0.00 10 1006.5
20260508000845 96 270 0.0 3.5 0.00 0.00 0.00 10 1006.2
20260508000343 96 338 0.9 4.3 0.00 0.00 0.00 10 1006.5
20260507235843 96 338 0.9 4.3 0.00 0.00 0.00 11 1006.5
20260507235615 95 180 0.9 4.3 0.00 0.00 0.00 10 1006.5
20260507234844 95 270 0.9 5.2 0.00 0.00 0.00 9 1006.5
20260507234344 95 158 0.9 4.3 0.00 0.00 0.00 10 1006.5
20260507234116 95 225 0.9 5.2 0.00 0.00 0.00 9 1006.5
20260507233617 94 180 0.9 5.2 0.00 0.00 0.00 10 1006.5
20260507232845 94 293 0.9 5.2 0.00 0.00 0.00 10 1006.5
20260507232615 94 270 0.9 6.1 0.00 0.00 0.00 11 1006.9
20260507232114 94 180 1.7 6.1 0.00 0.00 0.00 9 1006.9
20260507231343 94 158 0.9 4.3 0.00 0.00 0.00 9 1006.9
20260507230843 95 158 0.9 5.2 0.00 0.00 0.00 10 1006.5
20260507230343 95 248 0.9 5.2 0.00 0.00 0.00 10 1006.9
20260507225844 95 180 0.9 5.2 0.00 0.00 0.00 10 1006.9
20260507225614 95 203 0.9 6.1 0.00 0.00 0.00 9 1006.9
20260507224844 96 180 1.7 6.1 0.00 0.00 0.00 10 1006.9
20260507224344 96 203 1.7 6.1 0.00 0.00 0.00 9 1006.9
20260507224114 96 225 0.9 5.2 0.00 0.00 0.00 10 1007.3
20260507223343 96 203 0.9 3.5 0.00 0.00 0.00 11 1007.3
20260507222842 96 45 0.0 3.5 0.00 0.00 0.00 12 1007.3
20260507222342 95 68 0.0 3.5 0.00 0.00 0.00 12 1007.3
20260507221843 96 158 0.9 5.2 0.00 0.00 0.00 9 1007.3
20260507221343 96 135 0.9 5.2 0.00 0.00 0.00 10 1007.6
20260507221114 96 23 0.9 4.3 0.00 0.00 0.00 12 1008.0
20260507220343 95 23 0.9 6.1 0.00 0.00 0.00 12 1007.6
20260507215844 95 315 0.9 6.1 0.00 0.00 0.00 11 1008.0
20260507215333 95 225 0.9 6.1 0.00 0.00 0.00 11 1007.6
20260507214825 94 225 0.9 6.1 0.00 0.00 0.00 10 1008.0
20260507214323 94 180 0.9 7.0 0.00 0.00 0.00 11 1008.0
20260507213824 95 180 1.7 7.0 0.00 0.00 0.00 11 1008.0
20260507213323 95 180 0.9 5.2 0.00 0.00 0.00 12 1008.3
20260507212824 95 203 0.9 4.3 0.00 0.00 0.00 12 1008.3
20260507212325 95 203 0.9 4.3 0.00 0.00 0.00 12 1008.3
20260507211825 95 180 0.0 3.5 0.00 0.00 0.00 10 1008.7
20260507211325 95 45 0.0 3.5 0.00 0.00 0.00 11 1008.7
20260507210824 95 203 0.0 6.1 0.00 0.00 0.00 11 1008.7
20260507210323 95 225 1.7 6.1 0.00 0.00 0.00 10 1008.7
20260507205823 95 270 0.9 6.1 0.00 0.00 0.00 11 1009.0
20260507205328 95 315 0.9 6.1 0.00 0.00 0.00 12 1008.7
20260507204822 95 225 0.9 4.3 0.00 0.00 0.00 11 1009.0
20260507204323 95 45 0.0 4.3 0.00 0.00 0.00 12 1008.7
20260507203824 95 270 0.0 3.5 0.00 0.00 0.00 12 1009.0
20260507203324 95 68 0.9 3.5 0.00 0.00 0.00 12 1009.0
20260507202824 95 248 0.0 3.5 0.00 0.00 0.00 12 1009.0
20260507202324 95 158 0.9 3.5 0.00 0.00 0.00 12 1009.3
20260507201823 95 203 0.0 1.7 0.00 0.00 0.00 12 1009.3
20260507201323 95 293 0.0 1.7 0.00 0.00 0.00 12 1009.7
20260507200823 95 338 0.0 1.7 0.00 0.00 0.00 12 1009.7
20260507200324 95 180 0.0 4.3 0.00 0.00 0.00 12 1009.7
20260507195823 95 45 0.9 4.3 0.00 0.00 0.00 12 1009.7
20260507195325 94 270 0.9 5.2 0.00 0.00 0.00 12 1009.7
20260507194824 94 180 0.9 5.2 0.00 0.00 0.00 12 1009.7
20260507194326 94 338 0.0 3.5 0.00 0.00 0.00 15 1010.0
20260507193824 94 45 0.9 5.2 0.00 0.00 0.00 13 1010.0
20260507193324 93 45 0.9 5.2 0.00 0.00 0.00 13 1010.0
20260507192823 93 68 0.0 2.6 0.00 0.00 0.00 13 1010.0
20260507192324 93 225 0.0 3.5 0.00 0.00 0.00 12 1010.0
20260507191823 93 203 0.0 3.5 0.00 0.00 0.00 12 1010.0
20260507191323 93 203 0.9 4.3 0.00 0.00 0.00 12 1010.5
20260507190824 92 45 0.9 4.3 0.00 0.00 0.00 15 1010.5
20260507190325 92 338 0.0 4.3 0.00 0.00 0.00 12 1010.0
20260507185824 92 270 0.0 7.0 0.00 0.00 0.00 15 1010.8
20260507185556 91 203 0.9 7.0 0.00 0.00 0.00 13 1010.8
20260507185056 91 45 0.9 3.5 0.00 0.00 0.00 15 1010.8
20260507184323 91 0 0.0 2.6 0.00 0.00 0.00 13 1011.1
20260507184055 91 45 0.0 3.5 0.00 0.00 0.00 12 1011.1
20260507183323 91 135 0.9 3.5 0.00 0.00 0.00 12 1011.1
20260507182822 90 158 0.9 3.5 0.00 0.00 0.00 13 1011.1
20260507182324 90 248 0.9 3.5 0.00 0.00 0.00 12 1011.1
20260507182054 89 45 0.0 2.6 0.00 0.00 0.00 15 1011.5
20260507181554 89 90 0.0 2.6 0.00 0.00 0.00 15 1011.1
20260507180824 88 158 0.0 4.3 0.00 0.00 0.00 15 1011.5
20260507180324 88 248 0.9 4.3 0.00 0.00 0.00 15 1011.5
20260507175823 88 180 0.9 3.5 0.00 0.00 0.00 17 1011.5
20260507175553 87 135 0.0 1.7 0.00 0.00 0.00 17 1011.5
20260507174822 87 338 0.0 2.6 0.00 0.00 0.00 17 1011.8
20260507174322 87 270 0.0 3.5 0.00 0.00 0.00 19 1011.8
20260507173823 87 315 0.0 3.5 0.00 0.00 0.00 19 1011.8
20260507173323 86 0 0.9 3.5 0.00 0.00 0.00 19 1011.8